GSAT0104 (GALILEO-FM4) (38858 NORAD) Tracking and Keplerian Element Data

This shows tracking and keplerian element data for the satellite.

Feedback or suggestion? Click here.




ElementValue
Catalog38858
NameGSAT0104 (GALILEO-FM4)
Epoch Orbit3835
Epoch Day344.60704659
Epoch Year2018
RAAN177.0697
Inclination54.9173
Eccentricity2.12E-05
Argument of Perigee153.6304
Mean Anonmoly206.4135
Mean Motion1.70473907
Decay Rate6.8E-07
L11 38858U 12055B 18344.60704659 .00000068 00000-0 00000-0 0 9996
L22 38858 54.9173 177.0697 0000212 153.6304 206.4135 1.70473907 38355

Live tracking and technical data element details for GSAT0104 (GALILEO-FM4) (NORAD 38858). GSAT0104 (GALILEO-FM4) can be tracked NOW for your location showing map with azimuth and elevation plus other details from your city location.

Track the satellite on the map from your city or location and see movement details for azimuth, elevation, latitude, longitude, range, height, and movement on the map or in text.







IsCatalogInMostPopularTable: catalog: 38858, numindb: 75
Update: records affected: 1



GetName: 38858 GSAT0104 (GALILEO-FM4)

Hit Count: updated at: Thu, 13 Dec 2018 04:37:45 GMT